280  
ASCA44 KEWX 191120  
RWRMX  
 
LATIN AMERICA AND CARIBBEAN REGIONAL WEATHER ROUNDUP  
NATIONAL WEATHER SERVICE AUSTIN/SAN ANTONIO TX  
600 AM CDT TUE SEP 19 2017  
 
NOTE: "FAIR" INDICATED FEW OR NO CLOUDS BELOW 12,000 FEET WITH NO  
SIGNIFICANT WEATHER AND/OR S TO VISIBILITY
.  
 
BAJA CALIFORNIA  
 
CITY SKY/WX TMP DP RH WIND PRES REMARKS
 
LA PAZ CLEAR 75 72 88 S6 29.86  
S.J. DEL CABO N/A N/A N/A N/A MISG N/A  
TIJUANA CLOUDY 66 59 77 CALM 29.95S  
 
NORTHWESTERN MEXICO  
 
CITY SKY/WX TMP DP RH WIND PRES REMARKS
 
HERMOSILLO CLEAR 84 77 79 CALM 29.89 HX 94  
 
NORTHEASTERN MEXICO  
 
CITY SKY/WX TMP DP RH WIND PRES REMARKS
 
CHIHUAHUA PTCLDY 61 61 100 S5 30.11  
MATAMOROS PTCLDY 79 77 94 CALM 29.90  
MONCLOVA N/A N/A N/A N/A MISG N/A  
MONTERREY CLOUDY 77 70 78 E7 29.90F  
REYNOSA MOCLDY 77 72 83 SE5 29.90  
CD. VICTORIA N/A N/A N/A N/A MISG N/A  
 
WESTERN MEXICO  
 
CITY SKY/WX TMP DP RH WIND PRES REMARKS
 
AGUASCALIENTES CLEAR 59 55 88 NE7 30.24  
COLIMA N/A N/A N/A N/A MISG N/A  
DEL BAJIO PTCLDY 57 55 94 E5 30.28R  
GUADALAJARA PTCLDY 63 59 88 CALM 30.15  
MAZATLAN CLOUDY 81 77 89 W3 29.86R THUNDER  
P. VALLARTA PTCLDY 79 79 100 CALM 29.83F  
URUAPAN N/A N/A N/A N/A MISG N/A  
ZACATECAS PTCLDY 57 52 82 SE6 30.28  
 
CENTRAL MEXICO  
 
CITY SKY/WX TMP DP RH WIND PRES REMARKS
 
CUERNAVACA N/A N/A N/A N/A MISG N/A  
MEXICO CITY MOCLDY 61 52 72 N5 30.31R  
MORELIA MOCLDY 59 59 100 CALM 30.23  
POZA RICA N/A N/A N/A N/A MISG N/A  
QUERETARO PTCLDY 55 55 100 CALM 30.30R  
S. LUIS POTOSI CLEAR 55 55 100 CALM 30.25R  
TAMPICO MOCLDY 79 75 89 CALM 29.91  
TOLUCA MOCLDY 54 52 94 W5 30.36R FOG  
 
SOUTHERN MEXICO  
 
CITY SKY/WX TMP DP RH WIND PRES REMARKS
 
ACAPULCO PTCLDY 81 77 89 N3 29.82  
B. DE HUATULCO N/A N/A N/A N/A MISG N/A  
OAXACA CLEAR 59 55 88 CALM 30.19  
P. ESCONDIDO N/A N/A N/A N/A MISG N/A  
VERACRUZ CLEAR 75 73 94 NW5 29.89  
 
YUCATAN PENINSULA  
 
CITY SKY/WX TMP DP RH WIND PRES REMARKS
 
CAMPECHE PTCLDY 79 79 100 CALM 29.86  
CANCUN PTCLDY 77 77 100 CALM 29.92S  
CHETUMAL CLEAR 77 75 94 CALM 29.87  
CD. DEL CARMEN PTCLDY N/A N/A N/A CALM 29.88  
COZUMEL CLEAR 79 77 94 CALM 29.90R  
MERIDA CLEAR 79 75 89 E7 29.92R  
MINATITLAN DRIZZLE 79 77 94 N9 29.85  
TAPACHULA PTCLDY 73 73 100 CALM 29.84S  
TUX. GUTIERREZ DRIZZLE 72 70 94 NW3 29.95 FOG  
VILLAHERMOSA CLOUDY 75 75 100 E5 29.87R FOG  
 
CENTRAL AMERICA  
 
CITY SKY/WX TMP DP RH WIND PRES REMARKS
 
BELIZE CITY PTCLDY 79 77 94 CALM 29.86  
MANAGUA MOSUNNY 75 73 94 CALM 29.80S  
 
CARIBBEAN  
 
CITY SKY/WX TMP DP RH WIND PRES REMARKS
 
ARUBA PTCLDY 81 77 89 VRB3 29.86R  
CURACAO PTCLDY 82 75 78 S5 29.89R  
KINGSTON PTCLDY 82 72 69 N6 29.89S  
NASSAU MOCLDY 79 77 94 CALM 29.93S  
SAN JUAN PTSUNNY 84 77 79 NE10 29.88R HX 94  
SANTO DOMINGO MOCLDY 77 75 94 CALM 29.92R  
 

 
 
 
 
CLICK HERE TO GO TO PREVIOUS BULLETINS.

The Nexlab HPC Page Main Text Page